{"data":{"norad_id":68190,"intl_designator":"2026-050Z","name":"STARLINK-37071","alt_names":[],"object_type":"PAYLOAD","status":"ACTIVE","operator":null,"country":"US","launch_date":"2026-03-14","launch_site_code":"AFETR","launch_vehicle":null,"mission":null,"orbit_class":"UNKNOWN","rcs_meters":null,"size_class":null,"mass_kg":null,"dimensions":null,"purposes":["comms"],"wikipedia_slug":null,"has_3d_model":false,"image_url":null,"decayed_at":null,"tle_current":{"epoch":"2026-05-25T02:00:31.427712Z","epoch_age_seconds":78566,"freshness":"FRESH","line1":"1 68190U 26050Z   26145.08369708  .00028687  00000+0  85675-3 0  9990","line2":"2 68190  53.1604 271.5984 0001111  80.0682 280.0446 15.34406415 12380","mean_motion":15.34406415,"eccentricity":0.0001111,"inclination_deg":53.1604,"raan_deg":271.5984,"arg_perigee_deg":80.0682,"mean_anomaly_deg":280.0446,"bstar":0.00085675,"rev_number":1238,"period_min":93.847365725462,"perigee_km":461.92415830925,"apogee_km":463.44418877401,"semimajor_km":6840.8211735416,"source":"CELESTRAK","updated_at":"2026-05-25T13:38:21.857329Z"}}}